Погода в Мирном

Украина / Запорожская область     47°34′38″N   36°06′53″E
темп.,
°C
ветер,
м/с
пор.,
м/с
влажн.,
%
обл.,
%
осадки,
мм/ч
давл.,
гПа
погр.,
м
14 августа, вс
вс1400:00+26всв816370 0.0 1009539
03:00+26в71537100 0.0 1008503
06:00+26в71629100 0.0 1008504
09:00+31в101421100 0.0 10071247
12:00+35вюв101116100 0.0 10072497
15:00+37юв81014100 0.0 10063351
18:00+36вюв591699 0.0 10053100
21:00+30зсз222463 0.0 100547
15 августа, пн
пн1500:00+30всв5132175 0.0 1004444
03:00+29в8162217 0.0 1004479
06:00+26в6153355 0.4 1004404
09:00+31вюв9112796 0.4 1005888
12:00+35вюв810205 0.3 10051611
15:00+36юв891923 0.4 10041999
18:00+34ююв682398 0.1 10041638
21:00+27ю374846 0.4 1006176
16 августа, вт
вт1600:00+25зюз3667100 0.0 1006186
03:00+23с2476100 4.1 100687
06:00+22зсз2585100 0.3 1008241
09:00+24ссв33705 4.3 1009607
12:00+29ююв22440 0.0 10091379
15:00+32ююз33320 0.0 10092228
18:00+31ююз22331 0.0 10091922
21:00+25ююз46495 0.0 1010120
17 августа, ср
ср1700:00+23юз23622 0.0 101055
03:00+22зсз22670 0.0 101014
06:00+22з22750 0.0 100938
09:00+28з2251100 0.0 1009561
12:00+32зюз3337100 0.0 10091921
15:00+33ю433259 0.0 10082477
18:00+33юв213025 0.0 10082094
21:00+24з596542 1.1 1009153
18 августа, чт
чт1800:00+21ссз378148 0.0 1008150
03:00+21сз34735 0.0 100860
06:00+21ссз22695 0.0 100830
09:00+27зсз22477 0.0 1008381
12:00+32з43325 0.0 10071476
15:00+34зсз332683 0.0 10063387
18:00+33сз43295 0.0 10051854
21:00+24зсз3561100 0.1 1007114